Temp
60 64 70 69 70 52 58 61 54 58 64 62 52 47 50 48 43 49 47 50 50 57 63 68 65 67 71 74 77 78 78 78 76 77 78 79 80 81 80 80 80 79 80 80 81 81 81 81 81 80 79 80 79 79 78 77 78 78 78 78 78 78 78
62 64 63 69 72 64 58 54 60 64 68 66 54 44 45 43 40 40 43 53 49 53 53 63 64 64 68 70 73 76 77 77 75 77 78 79 80 81 81 81 81 81 81 81 81 82 82 82 82 81 79 81 80 80 80 78 78 77 78 78 78 78 78
58 61 63 63 71 72 66 62 69 62 48 50 55 48 41 40 38 36 41 47 51 54 56 55 63 64 66 67 70 73 74 75 76 77 78 79 81 81 81 81 80 80 81 81 81 82 83 83 82 82 81 81 81 81 81 81 79 79 79 80 80 79 79
53 57 57 52 59 69 73 67 66 65 56 56 50 52 43 45 36 39 44 46 48 54 60 62 67 66 68 69 68 71 75 76 77 78 79 79 79 80 81 81 81 81 82 82 83 83 83 82 82 83 83 83 82 82 81 81 81 80 79 79 79 78 79
54 46 54 57 60 57 60 60 57 61 59 57 61 52 51 47 38 36 39 42 44 50 58 66 69 69 69 71 70 71 74 77 79 79 80 79 80 80 81 82 82 82 82 83 83 84 84 84 83 83 83 82 82 82 81 81 80 80 80 80 80 79 79
40 46 55 55 54 54 54 60 58 60 57 50 50 46 56 52 47 36 40 43 42 56 63 69 70 71 72 72 74 73 75 77 78 80 81 80 80 81 82 83 84 83 83 83 84 84 84 83 83 83 83 83 83 82 82 82 82 81 80 80 79 79 79
42 49 55 59 59 58 55 56 58 63 57 52 51 43 44 51 54 49 44 42 50 61 63 69 72 73 73 73 73 75 76 77 79 81 82 82 81 82 83 84 84 84 83 83 83 82 82 82 82 83 83 83 82 82 82 82 81 81 82 81 81 79 79
47 51 55 56 57 55 55 57 58 60 59 59 59 54 46 51 45 50 51 47 55 62 63 68 72 70 73 72 73 74 76 77 78 79 81 81 80 81 83 84 85 84 84 83 81 80 80 81 80 81 82 82 83 83 83 82 82 82 82 82 81 80 79
42 52 53 52 53 54 49 47 50 53 57 60 58 51 48 52 51 55 47 44 56 61 60 64 67 69 71 70 70 71 75 77 78 79 80 81 80 80 81 82 82 82 82 80 79 80 79 80 82 81 82 82 82 82 83 82 82 83 82 82 82 81 80
32 34 38 36 34 40 46 49 51 53 53 50 52 56 50 46 47 52 50 52 61 61 60 64 64 65 67 65 66 69 71 72 74 75 78 79 79 79 80 80 81 80 80 80 79 79 79 81 82 80 80 82 83 82 82 83 83 82 83 83 82 81 80
33 36 35 42 44 43 40 45 47 48 51 54 52 50 48 51 41 50 50 57 62 59 64 63 65 62 66 68 66 69 70 72 74 73 76 79 79 79 80 79 80 79 78 78 79 79 81 82 82 82 82 82 83 81 81 83 83 83 82 82 81 81 81
40 42 43 46 47 42 43 43 44 48 50 51 51 48 51 50 47 49 49 51 55 64 67 66 64 64 62 62 63 67 69 73 76 77 74 78 79 80 79 79 78 78 78 78 78 79 80 81 82 82 83 83 82 81 81 82 83 83 83 82 81 80 79
42 44 44 46 45 45 45 46 46 46 49 50 48 49 52 51 57 54 54 48 55 64 66 61 59 61 62 67 70 73 73 73 74 74 76 77 79 79 78 77 77 78 78 77 78 79 80 81 81 81 82 82 81 81 82 82 83 83 82 81 80 80 79
41 43 43 46 43 44 45 46 48 50 50 50 51 52 54 55 54 57 55 50 58 62 57 60 62 61 61 62 63 64 64 68 70 73 75 77 78 78 78 78 78 78 78 78 78 78 78 80 80 81 81 80 82 82 82 83 82 83 82 81 79 80 79
37 42 45 45 45 46 45 49 50 50 51 52 52 53 56 53 55 58 59 55 57 57 59 60 63 62 63 63 63 63 63 66 71 72 75 76 77 78 78 77 79 78 78 78 78 77 78 79 80 80 81 81 82 83 83 83 82 83 83 80 80 80 79
32 40 43 45 46 46 45 46 48 49 50 48 50 50 51 49 48 49 54 54 50 56 62 62 62 63 62 62 63 63 64 64 67 71 74 75 76 77 78 79 79 78 78 77 77 78 79 80 80 81 80 81 82 83 83 83 84 84 83 81 80 79 80
30 39 42 42 42 46 43 43 46 49 51 53 54 53 54 52 51 48 48 49 56 58 61 61 62 63 63 63 64 64 65 65 64 69 73 75 77 78 77 78 77 78 79 79 78 80 81 81 81 82 82 82 81 82 82 83 83 83 83 82 80 79 80
29 38 39 41 40 38 37 50 53 51 48 50 48 48 50 52 53 51 55 56 59 60 61 62 63 63 63 64 65 67 65 64 64 67 69 73 76 77 79 79 79 79 79 80 80 81 81 82 84 84 83 83 83 84 84 83 83 82 81 81 80 79 79
28 35 37 38 35 39 49 54 55 54 54 53 49 53 52 52 53 53 54 56 58 60 63 63 63 66 68 69 67 68 69 67 66 65 69 71 74 73 74 75 78 78 78 78 78 79 81 82 81 82 82 83 82 83 83 83 82 80 80 80 79 79 78
34 32 29 33 35 47 52 53 53 55 56 53 51 52 52 53 52 52 51 54 57 60 63 64 65 64 68 69 69 68 69 69 68 68 66 69 74 74 75 76 75 75 78 78 79 79 81 81 82 83 83 84 84 84 85 83 82 81 80 79 79 79 79
26 31 29 34 44 46 45 45 45 48 44 46 44 42 48 52 53 51 50 53 56 59 62 64 65 66 69 66 66 69 69 69 70 70 70 69 71 73 73 76 74 74 76 78 79 79 80 82 82 83 83 84 84 84 83 83 81 81 80 79 79 79 79
36 27 28 30 36 33 38 43 49 53 54 53 53 47 48 53 53 53 51 51 54 57 60 61 64 65 64 59 60 66 67 69 69 71 72 72 72 73 74 74 75 75 76 77 79 81 79 80 82 82 83 83 81 80 81 81 81 80 80 80 80 79 80
32 28 26 27 31 35 38 40 45 50 54 53 54 47 43 49 52 52 51 51 53 56 57 58 62 63 57 56 59 63 66 68 69 69 71 72 72 72 73 75 76 76 77 78 80 79 79 79 79 80 82 81 80 79 80 80 80 80 80 81 81 80 81
32 31 28 26 33 31 38 43 46 50 53 53 50 40 39 48 51 52 51 50 52 54 58 58 57 55 54 55 58 63 65 68 69 69 69 70 71 72 73 74 74 75 76 77 77 78 78 77 79 80 81 80 80 79 79 80 81 80 81 81 82 83 83
34 35 33 36 36 44 45 45 48 51 51 51 42 35 41 50 51 52 52 51 52 54 56 56 51 54 56 58 61 64 67 67 67 69 70 71 71 71 72 73 74 73 74 75 74 75 74 75 78 81 80 80 79 78 78 78 79 81 82 82 82 82 82
33 35 34 35 37 42 47 47 49 49 50 40 37 46 52 51 50 52 52 51 52 54 55 56 53 53 58 61 62 64 66 66 66 67 68 69 70 72 73 74 73 72 73 72 73 73 73 75 78 79 79 78 76 76 77 77 78 80 79 80 81 81 81
37 34 34 34 29 40 48 46 47 47 40 39 44 48 49 50 49 50 51 51 51 53 52 56 55 55 56 57 59 63 64 65 65 66 67 66 67 68 69 70 72 72 70 70 70 72 73 75 78 79 79 76 76 76 75 75 76 76 78 78 78 79 79
32 32 29 30 37 42 48 45 37 43 44 47 47 47 44 48 48 47 49 51 52 52 53 53 54 55 55 56 58 61 63 64 65 66 66 66 67 68 69 70 71 71 69 69 69 70 71 73 75 77 77 75 75 74 73 74 75 76 76 76 76 77 78
35 34 37 41 45 45 47 48 46 47 49 49 48 47 46 45 46 49 48 49 51 53 53 54 55 53 55 55 57 58 60 62 64 65 65 65 66 67 67 68 70 70 68 68 69 69 70 71 72 73 75 75 74 72 72 73 74 75 75 76 75 74 74
44 46 46 47 46 45 46 50 50 48 47 49 48 47 45 47 48 49 47 49 50 52 53 52 54 54 54 54 57 58 60 61 63 64 65 65 66 66 68 68 69 69 69 69 69 69 69 70 71 72 73 75 73 72 73 73 73 74 75 75 76 75 74
38 35 46 43 42 44 46 48 51 50 49 47 47 47 47 48 48 49 50 50 51 52 52 53 53 55 56 54 54 57 59 60 61 62 63 64 65 65 65 67 68 67 68 68 68 68 68 69 70 71 71 72 72 72 73 73 73 74 76 76 76 74 73
38 37 43 43 45 47 48 48 47 46 47 48 48 48 48 49 50 50 51 51 51 53 51 53 53 54 56 55 54 54 57 59 60 60 61 63 64 65 66 67 68 67 67 67 67 67 67 68 69 70 70 70 70 71 71 72 73 76 76 76 74 72 72
41 45 45 43 45 49 48 49 48 47 46 46 47 48 48 49 49 50 51 53 51 52 52 54 54 53 54 55 54 54 56 58 59 59 60 63 63 64 65 66 68 67 67 67 67 67 67 67 69 69 69 69 70 70 71 71 72 75 75 75 72 71 72
34 35 38 41 34 35 42 44 46 46 48 48 47 47 47 48 48 49 49 50 53 53 54 55 54 52 53 55 55 54 55 58 58 59 61 62 63 64 65 66 67 67 68 67 66 67 67 68 68 68 69 69 70 71 71 72 72 73 73 72 71 71 71
33 40 43 44 43 41 43 45 47 48 48 47 46 45 46 48 49 49 49 48 50 51 54 57 55 54 53 55 55 55 55 57 59 59 60 61 61 62 64 64 65 66 67 68 67 67 67 68 68 69 69 69 69 71 71 71 72 72 72 71 71 71 72
42 45 44 45 43 40 44 47 48 48 48 47 46 47 48 48 49 50 49 50 49 50 52 56 56 55 54 55 55 54 55 58 58 59 60 61 62 63 64 63 64 64 65 66 66 66 66 67 67 68 69 68 68 70 70 71 72 71 71 71 70 70 71
40 46 46 46 45 46 47 48 49 49 51 50 48 47 48 48 49 51 50 50 51 51 52 53 54 55 54 55 55 55 54 56 58 60 61 62 63 63 63 63 63 64 64 65 65 65 66 67 67 68 68 68 68 69 70 71 72 71 71 71 71 71 71
MSLP
1006.76 1005.72 1004.16 1004.60 1004.56 1010.04 1007.40 1007.96 1009.76 1008.20 1006.32 1007.96 1010.28 1011.12 1010.80 1010.80 1010.92 1010.32 1007.60 1008.00 1007.68 1005.20 1003.52 1001.84 1002.28 1003.04 1003.08 1002.52 1002.20 1002.08 1002.04 1001.88 1002.48 1003.04 1003.12 1003.32 1003.48 1003.72 1004.04 1004.32 1004.48 1004.68 1005.00 1005.44 1005.64 1005.96 1006.40 1006.84 1007.32 1007.56 1007.80 1008.04 1008.48 1009.04 1009.68 1010.24 1010.64 1011.04 1011.44 1011.72 1012.08 1012.40 1012.76
1005.52 1006.04 1006.04 1004.40 1003.60 1004.20 1006.80 1009.04 1007.24 1005.88 1004.84 1006.48 1009.48 1012.64 1011.24 1011.60 1012.56 1010.32 1008.32 1008.48 1007.96 1007.44 1008.16 1002.60 1002.76 1003.40 1002.84 1003.00 1002.56 1002.04 1001.64 1001.76 1002.68 1002.48 1002.44 1002.60 1002.80 1002.88 1002.96 1003.16 1003.36 1003.76 1004.20 1004.52 1004.76 1005.04 1005.32 1005.72 1006.16 1006.76 1007.32 1007.64 1008.12 1008.60 1009.08 1009.80 1010.32 1010.84 1011.04 1011.36 1011.72 1012.04 1012.48
1007.32 1006.76 1005.60 1005.16 1003.68 1002.80 1005.16 1006.00 1003.96 1007.36 1010.92 1011.32 1008.64 1010.20 1013.24 1013.00 1012.80 1011.20 1008.36 1008.04 1007.28 1006.24 1005.76 1004.16 1003.44 1003.24 1002.76 1002.92 1002.44 1002.28 1002.24 1002.16 1002.16 1001.92 1001.84 1001.76 1001.80 1002.24 1002.76 1003.08 1003.40 1003.84 1004.12 1004.40 1004.60 1004.72 1004.72 1005.12 1005.64 1006.20 1006.80 1007.40 1007.92 1008.32 1008.64 1009.04 1009.68 1009.96 1010.36 1010.76 1011.20 1011.64 1012.00
1009.16 1007.64 1007.16 1008.16 1006.28 1003.92 1003.00 1003.52 1005.16 1004.04 1006.16 1007.72 1010.12 1008.80 1008.64 1009.64 1011.64 1011.24 1009.72 1008.44 1007.72 1005.16 1003.80 1002.92 1002.60 1002.08 1001.60 1001.96 1002.48 1002.40 1001.64 1001.36 1001.28 1001.40 1001.48 1001.68 1001.96 1002.12 1002.24 1002.52 1002.84 1003.16 1003.28 1003.44 1003.76 1004.08 1004.60 1004.96 1005.40 1005.88 1006.48 1007.00 1007.56 1007.80 1008.32 1008.80 1009.16 1009.60 1010.16 1010.64 1010.96 1011.44 1011.64
1008.84 1008.48 1006.72 1006.68 1005.72 1006.76 1006.32 1006.12 1006.56 1005.96 1005.72 1004.92 1005.64 1007.04 1007.88 1009.20 1010.52 1010.40 1009.96 1009.60 1006.56 1003.52 1001.96 1001.24 1000.52 1000.56 1000.52 1000.80 1001.40 1001.44 1001.08 1000.68 1000.48 1000.44 1000.68 1001.04 1001.24 1001.40 1001.48 1001.64 1002.08 1002.44 1002.68 1002.84 1003.04 1003.44 1003.96 1004.52 1005.12 1005.76 1006.28 1006.64 1006.96 1007.52 1008.08 1008.36 1008.96 1009.40 1009.88 1010.16 1010.60 1011.04 1011.40
1011.16 1009.56 1007.00 1007.32 1007.72 1007.88 1007.64 1005.96 1006.36 1005.68 1006.64 1007.88 1009.28 1009.96 1006.52 1006.88 1008.72 1009.72 1009.56 1009.32 1006.00 1001.52 1001.88 1000.40 1000.60 1000.28 1000.16 1000.00 999.64 1000.28 1000.32 1000.08 999.92 999.80 999.92 1000.16 1000.68 1000.60 1000.52 1000.68 1001.00 1001.48 1001.76 1002.08 1002.44 1003.00 1003.76 1004.64 1005.20 1005.52 1005.60 1006.12 1006.68 1007.08 1007.36 1007.92 1008.44 1008.88 1009.32 1009.80 1010.16 1010.60 1011.04
1011.04 1009.16 1007.20 1006.80 1007.16 1007.28 1007.60 1007.60 1005.92 1004.32 1005.04 1005.36 1007.44 1010.08 1008.52 1007.08 1006.80 1006.56 1007.48 1008.96 1005.80 1000.36 1000.08 1000.08 999.36 999.52 999.72 999.60 999.64 999.48 999.40 999.48 999.20 999.00 998.96 999.20 999.40 999.76 999.92 1000.08 1000.28 1000.52 1000.92 1001.36 1002.00 1002.72 1003.28 1003.72 1004.12 1004.56 1005.16 1005.68 1006.04 1006.52 1007.04 1007.48 1007.96 1008.32 1008.56 1009.00 1009.48 1010.04 1010.56
1009.84 1008.24 1007.24 1006.92 1006.96 1007.76 1007.48 1006.44 1006.08 1005.36 1005.60 1004.76 1005.08 1005.64 1006.04 1007.08 1007.32 1008.08 1007.72 1008.84 1004.36 1000.28 999.68 999.56 999.12 998.96 999.04 999.32 999.36 999.04 999.16 999.08 999.04 998.80 998.64 998.92 999.36 999.40 999.36 999.52 999.72 999.96 1000.40 1001.16 1002.08 1002.84 1003.28 1003.68 1004.24 1004.64 1004.84 1005.16 1005.64 1006.08 1006.44 1006.96 1007.52 1007.80 1008.24 1008.60 1009.08 1009.68 1010.16
1008.28 1006.60 1005.48 1006.92 1007.12 1007.96 1009.28 1009.84 1009.04 1008.12 1007.04 1004.96 1004.36 1004.60 1006.12 1006.24 1006.32 1005.96 1007.92 1009.80 1004.48 1000.96 1001.12 1000.12 999.96 999.56 999.60 999.44 999.36 999.44 998.96 998.48 998.64 998.68 998.52 998.52 998.52 998.76 999.12 999.48 999.64 1000.04 1000.84 1001.64 1002.00 1002.24 1002.64 1003.04 1003.40 1003.92 1004.48 1004.88 1005.24 1005.60 1006.00 1006.48 1006.84 1007.16 1007.64 1008.04 1008.68 1009.24 1009.72
1011.32 1010.52 1009.20 1009.92 1011.00 1011.64 1010.56 1009.68 1008.76 1008.24 1008.08 1008.40 1007.16 1006.28 1005.96 1007.08 1005.52 1005.52 1006.16 1006.00 1002.00 1001.60 1000.88 999.92 1000.16 999.92 999.36 999.16 999.36 999.16 999.16 998.96 999.00 998.84 998.64 998.40 998.48 998.64 998.76 999.00 999.48 1000.20 1000.48 1000.76 1001.32 1001.84 1002.20 1002.56 1002.96 1003.48 1003.88 1004.32 1004.68 1005.08 1005.40 1005.68 1006.36 1006.92 1007.32 1007.68 1008.24 1008.84 1009.36
1011.56 1010.92 1012.68 1012.68 1012.60 1011.92 1011.48 1009.76 1009.96 1009.24 1008.84 1008.32 1008.48 1007.08 1006.16 1006.28 1005.72 1005.88 1004.28 1003.24 1001.96 1002.24 1001.40 1000.52 999.92 999.68 999.60 999.04 998.52 998.44 998.68 998.76 998.64 998.64 998.36 998.16 998.20 998.20 998.40 998.72 999.04 999.40 1000.16 1000.60 1000.80 1001.20 1001.52 1001.92 1002.36 1002.84 1003.36 1003.84 1004.24 1004.68 1005.12 1005.40 1005.76 1006.36 1006.84 1007.40 1007.92 1008.48 1009.00
1012.44 1012.04 1011.84 1011.48 1011.96 1012.40 1011.60 1011.68 1010.00 1008.88 1008.84 1008.44 1008.40 1008.20 1006.24 1003.96 1005.00 1006.12 1003.40 1002.64 1003.52 1001.40 1000.48 1000.72 1000.80 1000.00 999.64 999.20 998.76 998.64 998.48 997.92 997.84 997.84 998.08 997.96 997.92 997.80 997.92 998.48 998.96 999.48 999.68 999.96 1000.48 1000.84 1001.20 1001.64 1002.00 1002.48 1002.80 1003.12 1003.60 1004.16 1004.72 1005.08 1005.52 1006.08 1006.52 1007.08 1007.64 1008.16 1008.64
1012.36 1011.92 1011.80 1011.32 1011.52 1011.56 1011.12 1010.76 1010.24 1009.68 1008.52 1008.40 1008.76 1007.40 1006.40 1004.96 1004.04 1004.28 1002.88 1002.36 1002.76 1000.68 1000.32 1001.92 1001.96 1001.52 1000.52 999.44 998.44 997.88 997.88 998.08 997.88 997.60 997.68 997.88 997.76 997.68 998.08 998.32 998.52 998.84 999.36 999.76 1000.04 1000.44 1000.76 1001.16 1001.84 1002.24 1002.68 1003.12 1003.52 1004.04 1004.44 1004.80 1005.20 1005.64 1005.96 1006.64 1007.24 1007.72 1008.28
1012.28 1011.80 1011.56 1011.08 1011.48 1011.28 1010.84 1010.28 1009.40 1008.56 1008.28 1007.68 1007.28 1007.04 1006.20 1005.52 1003.84 1002.28 1001.64 1001.28 1000.92 1001.12 1003.00 1002.44 1002.08 1001.64 1001.56 1001.24 1000.84 1000.48 1000.16 999.16 998.20 997.76 997.40 997.36 997.32 997.52 997.72 997.84 998.04 998.28 998.52 998.96 999.44 999.88 1000.48 1000.96 1001.44 1001.92 1002.40 1002.80 1003.12 1003.52 1004.00 1004.36 1004.80 1005.08 1005.64 1006.32 1006.88 1007.44 1007.96
1012.36 1011.08 1010.60 1010.64 1010.32 1010.12 1010.08 1008.64 1008.44 1008.24 1007.44 1006.24 1006.28 1006.28 1005.36 1004.88 1004.36 1003.12 1001.72 1001.56 1001.44 1001.92 1002.48 1002.48 1001.48 1001.16 1000.80 1000.52 1000.64 1000.80 1000.24 999.36 998.08 997.36 996.96 996.72 996.76 996.96 997.16 997.28 997.44 997.68 998.04 998.52 999.16 999.80 1000.24 1000.56 1000.88 1001.28 1001.64 1002.00 1002.44 1003.00 1003.48 1003.96 1004.40 1004.64 1005.12 1005.96 1006.48 1006.96 1007.40
1011.60 1010.56 1010.40 1009.88 1009.92 1009.80 1009.44 1008.92 1008.64 1008.28 1007.80 1007.24 1006.80 1006.76 1007.16 1006.72 1005.04 1004.16 1003.48 1002.84 1002.80 1003.32 1002.32 1002.04 1001.72 1001.12 1001.12 1001.28 1001.08 1000.52 1000.00 999.48 998.56 997.20 996.60 996.44 996.36 996.40 996.68 996.84 997.04 997.56 998.08 998.64 999.12 999.44 999.72 1000.04 1000.40 1000.84 1001.40 1001.84 1002.36 1002.80 1003.00 1003.44 1003.80 1004.24 1004.92 1005.56 1006.12 1006.60 1006.88
1012.24 1010.08 1010.52 1010.24 1009.68 1008.20 1008.48 1009.36 1009.56 1009.08 1008.12 1007.60 1007.20 1007.16 1006.92 1007.12 1006.68 1005.12 1004.20 1005.16 1005.16 1004.16 1003.00 1002.88 1002.24 1001.84 1001.40 1001.20 1001.00 1000.60 999.76 999.20 998.64 997.40 996.44 996.12 995.88 995.88 996.12 996.52 996.84 997.20 997.56 997.88 998.16 998.52 999.00 999.48 999.96 1000.16 1000.56 1001.32 1001.80 1001.96 1002.52 1002.88 1003.44 1004.08 1004.64 1005.16 1005.76 1006.32 1006.64
1011.12 1010.84 1010.76 1010.20 1009.00 1008.80 1009.04 1008.68 1008.44 1008.68 1009.04 1008.56 1008.40 1008.56 1008.04 1007.36 1006.56 1006.92 1006.20 1005.56 1004.48 1003.96 1003.40 1003.04 1002.60 1002.12 1001.96 1001.64 1001.00 1000.28 1000.20 999.60 998.76 997.08 996.12 995.96 995.88 995.84 995.80 995.92 996.24 996.56 996.88 997.28 997.56 997.80 998.08 998.44 998.72 999.28 999.84 1000.40 1001.00 1001.52 1002.20 1002.84 1003.36 1003.92 1004.52 1005.04 1005.52 1006.04 1006.40
1012.84 1011.20 1010.52 1009.40 1008.84 1008.04 1007.84 1007.48 1007.68 1008.12 1008.04 1008.08 1008.88 1007.84 1007.60 1007.48 1006.72 1006.52 1006.24 1005.60 1004.88 1004.04 1003.28 1002.88 1002.36 1001.56 1001.04 1000.64 1000.64 1000.16 999.52 999.32 998.92 998.40 996.32 995.72 995.72 995.96 996.32 996.52 996.44 996.56 996.76 997.16 997.72 998.28 998.64 998.96 999.40 999.88 1000.52 1000.88 1001.36 1001.84 1002.16 1002.76 1003.12 1003.72 1004.24 1004.76 1005.32 1005.68 1006.04
1012.20 1011.60 1010.96 1008.36 1008.44 1008.12 1007.48 1007.32 1007.92 1007.92 1007.56 1008.04 1008.24 1006.96 1007.60 1007.56 1007.88 1007.64 1007.24 1006.36 1005.36 1004.24 1003.20 1002.40 1001.72 1001.32 1000.68 1000.44 1000.08 1000.00 999.56 999.16 999.08 998.48 997.76 996.08 995.44 995.80 995.88 996.16 996.28 996.44 996.72 997.04 997.36 997.80 998.04 998.64 999.16 999.52 1000.12 1000.36 1001.00 1001.56 1001.72 1002.40 1002.92 1003.44 1003.96 1004.52 1004.92 1005.24 1005.68
1013.48 1010.64 1011.00 1009.12 1008.20 1007.72 1008.00 1008.44 1009.60 1009.56 1010.52 1009.80 1010.32 1009.76 1008.52 1008.40 1008.20 1008.08 1007.84 1006.60 1005.52 1004.40 1003.32 1002.44 1001.40 1000.52 1000.40 1000.72 1000.76 1000.04 999.92 999.56 998.88 998.36 997.72 996.92 995.92 995.52 995.88 995.92 996.48 996.48 996.52 996.96 997.32 997.68 998.08 998.40 998.96 999.44 999.80 1000.20 1000.80 1001.44 1002.00 1002.36 1002.76 1003.32 1003.76 1004.28 1004.56 1004.80 1005.20
1011.60 1012.44 1010.92 1009.48 1008.68 1008.88 1008.96 1009.76 1009.52 1009.40 1009.28 1009.20 1009.00 1009.88 1008.44 1008.16 1008.16 1008.16 1008.04 1007.32 1006.40 1005.12 1003.96 1003.04 1001.68 1000.52 1001.20 1002.60 1002.64 1001.28 1000.56 999.88 999.44 998.40 997.68 997.04 996.56 996.16 995.92 996.12 996.32 996.52 996.84 997.12 997.36 997.60 998.20 998.56 998.80 999.12 999.52 1000.12 1000.76 1001.40 1001.88 1002.24 1002.76 1003.24 1003.60 1003.92 1004.04 1004.44 1004.72
1013.92 1012.52 1011.28 1009.40 1008.12 1008.56 1010.88 1011.00 1010.44 1009.36 1008.80 1008.80 1008.56 1009.16 1009.12 1008.76 1008.84 1008.40 1008.28 1007.80 1006.84 1006.12 1005.36 1004.48 1002.92 1001.68 1003.48 1004.36 1003.52 1002.24 1001.32 1000.60 999.80 999.28 998.52 997.84 997.32 996.88 996.64 996.24 996.44 996.68 996.80 996.88 997.28 997.64 998.12 998.80 998.88 999.00 999.44 1000.04 1000.80 1001.48 1001.76 1002.16 1002.52 1003.08 1003.36 1003.44 1003.72 1004.04 1004.20
1014.04 1012.24 1011.16 1011.08 1010.48 1010.84 1010.80 1010.96 1009.96 1009.00 1008.40 1008.40 1008.64 1008.76 1009.72 1009.60 1009.32 1008.96 1008.60 1008.32 1007.60 1006.80 1005.84 1005.28 1004.84 1004.88 1005.08 1005.00 1004.08 1002.60 1001.88 1001.04 1000.24 999.72 999.36 998.72 998.12 997.68 997.16 997.00 996.80 996.72 996.80 997.16 997.68 997.96 998.20 998.40 998.44 998.76 999.20 999.92 1000.60 1001.20 1001.60 1001.88 1002.48 1002.84 1002.88 1002.84 1002.88 1003.00 1003.32
1011.96 1011.32 1010.72 1009.96 1010.32 1010.08 1010.64 1010.28 1009.76 1008.56 1008.08 1007.88 1008.84 1010.12 1010.72 1010.00 1009.88 1009.32 1009.00 1008.76 1008.20 1007.48 1006.64 1006.40 1006.72 1006.44 1006.08 1005.20 1003.92 1002.76 1001.64 1001.00 1000.68 999.92 999.48 999.12 998.68 998.40 998.04 997.84 997.52 997.56 997.60 997.64 998.04 998.20 998.32 998.32 998.40 998.60 999.08 999.88 1000.64 1001.00 1001.40 1001.84 1002.20 1002.08 1002.00 1002.16 1002.44 1002.72 1003.00
1011.28 1010.40 1010.56 1009.92 1010.28 1011.20 1010.56 1010.12 1009.64 1008.84 1007.20 1009.24 1010.56 1010.64 1010.56 1010.28 1010.16 1009.48 1009.24 1009.16 1008.64 1008.04 1007.48 1007.20 1007.40 1007.00 1005.88 1004.96 1003.68 1002.48 1002.00 1001.92 1001.36 1000.84 1000.32 999.72 999.16 998.76 998.44 998.28 998.24 998.36 998.36 998.52 998.60 998.72 998.68 998.48 998.44 998.64 999.08 999.92 1000.52 1000.96 1001.32 1001.68 1001.64 1001.48 1001.68 1001.92 1002.16 1002.48 1002.84
1010.56 1010.48 1010.00 1009.76 1010.84 1010.36 1010.96 1010.64 1009.56 1010.08 1009.88 1012.00 1012.84 1011.48 1011.08 1011.20 1011.04 1010.36 1009.44 1009.24 1008.96 1008.60 1008.16 1007.52 1007.32 1006.96 1006.04 1004.92 1003.92 1003.16 1002.64 1002.40 1002.20 1001.72 1001.16 1000.84 1000.48 1000.12 999.64 999.32 999.04 998.92 999.04 999.12 999.20 999.20 998.96 998.72 998.64 998.80 999.24 1000.16 1000.72 1000.96 1001.48 1001.56 1001.40 1001.40 1001.52 1001.76 1002.04 1002.32 1002.60
1011.52 1011.68 1011.88 1012.48 1012.80 1013.24 1011.84 1011.64 1012.52 1012.64 1013.16 1013.00 1012.64 1012.32 1012.32 1011.64 1011.52 1011.20 1010.24 1009.44 1009.24 1008.88 1008.60 1008.08 1007.40 1007.00 1006.16 1004.76 1004.20 1003.64 1003.24 1002.96 1002.60 1002.12 1001.76 1001.36 1000.96 1000.56 1000.16 1000.00 999.88 999.56 999.60 999.56 999.60 999.56 999.36 999.24 999.20 999.24 999.52 1000.44 1000.84 1001.16 1001.60 1001.40 1001.36 1001.40 1001.56 1001.76 1002.00 1002.32 1002.48
1013.64 1012.16 1012.72 1013.40 1013.08 1012.80 1012.28 1012.04 1012.64 1012.40 1012.60 1012.72 1012.68 1012.56 1012.60 1012.56 1012.08 1011.52 1011.08 1010.44 1009.60 1009.20 1008.96 1008.24 1007.80 1007.20 1006.48 1006.16 1005.52 1005.00 1004.64 1004.16 1003.72 1003.20 1002.76 1002.36 1001.96 1001.52 1001.16 1000.84 1000.44 1000.28 1000.28 1000.24 1000.12 1000.08 999.96 999.80 999.72 999.76 999.80 1000.32 1000.88 1001.40 1001.60 1001.32 1001.40 1001.44 1001.56 1001.68 1001.96 1002.28 1002.48
1012.92 1012.08 1012.04 1012.52 1012.80 1012.84 1012.48 1011.80 1011.84 1012.24 1012.60 1012.76 1012.88 1012.76 1012.72 1012.56 1012.40 1011.92 1011.68 1010.88 1010.36 1009.56 1009.08 1008.64 1008.00 1007.60 1007.12 1006.44 1005.72 1005.16 1004.88 1004.60 1004.08 1003.56 1003.12 1002.68 1002.28 1001.88 1001.48 1001.24 1001.08 1000.96 1000.72 1000.60 1000.64 1000.72 1000.64 1000.44 1000.36 1000.28 1000.32 1000.28 1000.88 1001.28 1001.16 1001.08 1001.00 1001.12 1001.36 1001.64 1001.88 1002.00 1002.08
1012.84 1012.44 1011.96 1013.40 1013.72 1012.88 1012.12 1011.92 1011.68 1012.20 1012.36 1012.76 1013.08 1013.08 1012.88 1012.68 1012.48 1011.96 1011.52 1011.16 1010.64 1009.96 1009.48 1009.12 1008.72 1007.96 1007.28 1006.68 1006.12 1005.68 1005.32 1005.16 1005.00 1004.64 1004.16 1003.60 1003.16 1002.88 1002.52 1002.00 1001.60 1001.48 1001.32 1001.36 1001.40 1001.40 1001.52 1001.36 1001.12 1000.92 1000.84 1000.80 1000.88 1000.96 1000.92 1000.84 1000.80 1000.92 1001.12 1001.28 1001.56 1001.76 1001.76
1013.64 1013.60 1013.04 1014.00 1013.28 1011.76 1011.40 1011.72 1012.20 1012.56 1012.72 1012.60 1012.68 1012.92 1012.80 1012.64 1012.32 1012.20 1011.52 1011.20 1010.84 1010.20 1009.72 1009.24 1008.96 1008.40 1007.60 1007.36 1006.64 1006.16 1006.16 1005.92 1005.56 1005.12 1004.68 1004.16 1003.68 1003.16 1002.80 1002.44 1002.08 1002.00 1001.96 1002.12 1002.16 1002.16 1002.28 1002.04 1001.72 1001.44 1001.28 1001.20 1001.04 1000.88 1000.76 1000.72 1000.72 1000.84 1001.12 1001.36 1001.52 1001.56 1001.68
1013.96 1012.92 1013.16 1013.96 1013.24 1011.60 1011.96 1012.08 1012.48 1012.80 1013.04 1013.04 1012.68 1012.52 1012.56 1012.36 1012.28 1011.96 1011.56 1011.16 1011.08 1010.60 1010.04 1009.36 1008.96 1008.72 1007.96 1007.64 1007.16 1006.68 1006.60 1006.48 1006.16 1005.72 1005.16 1004.56 1004.20 1003.84 1003.48 1003.12 1002.72 1002.68 1002.68 1002.68 1002.72 1002.64 1002.60 1002.28 1001.96 1001.80 1001.76 1001.60 1001.36 1001.12 1001.00 1000.88 1000.80 1000.92 1001.24 1001.36 1001.56 1001.60 1001.72
1015.24 1015.44 1015.20 1015.04 1015.60 1014.48 1013.52 1013.60 1013.68 1013.48 1013.04 1013.16 1013.00 1012.56 1012.36 1012.04 1012.00 1011.88 1011.64 1011.12 1010.72 1010.52 1009.92 1009.48 1009.12 1008.84 1008.44 1007.80 1007.76 1007.60 1007.00 1006.72 1006.76 1006.36 1005.52 1004.76 1004.36 1004.12 1003.84 1003.48 1003.20 1002.96 1002.88 1002.92 1002.96 1002.88 1002.68 1002.32 1002.08 1002.04 1002.00 1001.92 1001.68 1001.52 1001.36 1001.16 1000.96 1001.08 1001.40 1001.60 1001.72 1001.88 1001.84
1015.84 1015.20 1015.28 1015.24 1015.36 1015.08 1014.44 1013.84 1013.32 1013.12 1012.84 1012.84 1012.80 1012.48 1012.12 1011.72 1011.48 1011.48 1011.48 1011.08 1010.72 1010.40 1009.80 1009.24 1009.12 1009.04 1008.68 1008.04 1008.08 1008.08 1007.52 1006.64 1006.36 1006.52 1006.00 1005.32 1004.76 1004.48 1004.24 1004.08 1003.76 1003.56 1003.32 1003.16 1003.00 1002.96 1002.80 1002.40 1002.20 1002.08 1002.04 1001.96 1001.88 1001.76 1001.60 1001.52 1001.36 1001.40 1001.44 1001.64 1001.96 1002.08 1002.12
1015.68 1015.08 1014.96 1015.00 1015.16 1015.16 1014.12 1013.48 1013.08 1012.80 1012.56 1012.56 1012.32 1011.92 1011.64 1011.48 1011.20 1010.92 1010.92 1010.76 1010.76 1010.44 1010.00 1009.20 1008.92 1008.84 1008.60 1008.12 1008.08 1008.12 1007.80 1007.00 1006.40 1006.00 1005.80 1005.36 1004.92 1004.56 1004.36 1004.44 1004.40 1004.12 1003.84 1003.60 1003.44 1003.24 1002.88 1002.48 1002.24 1002.00 1001.88 1001.88 1001.88 1001.84 1001.80 1001.80 1001.76 1001.80 1001.80 1001.76 1002.04 1002.24 1002.20
1015.80 1014.88 1014.68 1014.60 1014.60 1014.24 1013.64 1013.12 1012.76 1012.40 1011.92 1011.68 1011.64 1011.44 1011.16 1010.92 1010.56 1010.40 1010.32 1010.28 1010.16 1010.16 1009.84 1009.24 1008.84 1008.56 1008.56 1008.24 1008.04 1007.88 1007.96 1007.24 1006.56 1005.92 1005.52 1005.28 1004.96 1004.68 1004.56 1004.44 1004.40 1004.40 1004.16 1003.88 1003.52 1003.12 1002.84 1002.52 1002.20 1002.04 1001.96 1002.04 1002.04 1002.04 1002.08 1002.08 1002.04 1002.12 1002.12 1002.08 1002.16 1002.20 1002.20
Wind_Speed
7 8 7 9 11 11 7 9 14 11 7 5 2 3 1 1 2 15 4 4 5 7 7 6 4 5 10 13 16 15 15 13 9 12 15 17 17 17 16 16 16 18 16 16 17 18 17 17 18 19 19 19 20 18 17 18 17 16 17 17 16 15 14
5 6 12 7 14 6 6 10 10 4 5 3 4 7 1 5 9 7 2 12 2 6 12 2 4 5 10 10 13 14 15 10 11 14 15 17 18 19 19 19 19 19 19 20 19 19 20 21 21 20 19 18 17 17 18 18 17 18 17 16 16 15 15
7 14 5 6 11 11 10 9 9 11 7 11 9 3 10 9 8 3 3 2 6 11 9 2 9 8 10 10 11 11 12 9 13 14 16 17 19 18 17 17 16 15 16 16 17 19 20 19 19 19 18 17 16 16 17 18 19 19 18 16 15 13 14
11 9 2 9 9 10 13 8 11 7 4 9 9 10 2 2 5 1 8 2 8 6 6 9 12 12 12 11 9 11 14 14 14 13 13 15 16 16 17 17 16 16 18 19 20 20 20 20 19 18 18 16 18 18 17 17 17 16 15 16 15 15 14
6 4 4 11 9 10 10 7 6 7 5 1 5 1 5 6 4 4 2 5 3 6 6 10 12 12 12 13 13 13 13 13 14 14 14 14 16 17 18 18 17 18 18 19 19 18 17 15 14 14 16 19 18 16 17 17 18 18 17 17 15 14 12
4 9 4 7 8 8 4 7 9 8 8 4 10 9 1 6 4 4 2 10 2 8 4 10 12 12 13 13 15 14 14 14 13 13 14 14 15 17 19 19 19 18 19 19 18 16 13 13 15 18 18 17 18 18 18 17 17 16 18 16 15 14 13
10 15 21 16 12 9 8 4 6 6 4 4 5 9 6 2 7 1 2 3 9 7 6 9 10 11 11 12 12 13 13 14 15 15 15 15 17 18 18 19 18 19 19 18 18 19 20 21 20 20 18 18 18 18 17 16 17 18 17 17 16 14 14
11 16 17 15 8 7 5 3 2 4 6 5 8 5 5 7 1 6 8 10 11 3 5 9 10 7 8 7 11 14 11 9 10 13 14 14 13 15 16 15 16 17 16 14 13 15 16 16 15 17 17 17 17 17 18 17 19 18 17 16 15 15 14
6 9 2 4 4 6 4 4 6 6 10 7 4 4 2 5 9 8 7 10 15 1 1 3 2 4 3 4 5 7 11 11 11 12 13 12 14 15 16 16 17 14 12 13 15 17 17 17 17 17 17 17 17 17 17 17 18 18 17 15 15 15 16
8 9 11 3 6 8 9 6 8 6 8 11 6 10 3 7 5 8 8 11 9 2 2 2 1 2 4 4 3 4 6 7 5 6 10 12 13 14 16 16 15 15 16 16 15 16 16 17 17 17 17 17 17 17 18 17 17 16 16 14 15 15 15
7 2 1 3 5 6 4 13 14 15 11 5 4 4 4 12 3 8 7 10 13 3 5 4 4 3 5 5 4 6 7 8 9 7 11 13 14 15 17 16 15 15 13 17 18 18 18 18 18 17 17 17 17 16 17 17 16 16 15 14 15 15 15
11 9 10 10 7 12 14 11 15 14 11 9 7 4 8 3 7 11 5 5 5 15 10 6 4 7 6 6 6 6 7 10 12 12 11 14 14 14 13 12 14 16 18 18 18 19 18 17 17 16 16 17 17 17 17 16 15 15 13 14 15 15 14
10 10 11 12 9 10 12 12 14 16 17 11 10 8 8 3 11 14 3 3 5 15 4 6 1 3 6 9 10 10 8 9 9 11 12 15 17 16 14 14 16 17 17 16 18 18 18 18 17 17 16 15 13 13 13 14 15 16 15 15 15 15 14
9 11 13 13 11 7 8 10 12 12 13 14 11 13 11 11 9 4 6 8 13 2 7 8 6 5 5 7 6 6 7 12 12 12 14 15 16 15 16 16 17 17 19 19 18 19 17 18 18 17 15 15 16 17 16 16 16 15 14 15 15 15 15
9 11 8 8 8 6 6 4 6 8 12 9 11 10 7 5 7 9 12 7 10 2 5 5 6 4 3 6 11 10 9 10 13 14 15 15 16 16 16 16 18 17 17 17 16 17 17 18 19 18 17 17 16 16 15 16 16 15 15 14 15 15 16
7 4 3 5 5 8 8 2 10 14 14 9 8 5 5 1 4 5 6 6 6 8 11 6 6 9 13 11 12 13 11 12 10 11 11 13 14 16 16 17 16 15 15 15 17 18 19 19 18 17 15 15 15 16 16 16 16 14 15 14 15 15 15
6 6 3 8 9 3 2 3 6 9 8 8 4 7 11 10 4 1 2 2 5 9 8 7 10 10 12 13 12 13 15 15 11 9 8 11 13 15 16 16 16 16 17 18 20 20 18 18 18 18 17 16 17 17 16 15 13 14 15 15 14 14 13
6 6 8 8 3 9 5 6 4 7 6 9 10 9 10 14 10 2 3 6 9 9 8 7 8 11 10 9 9 9 10 12 14 8 5 6 7 9 13 15 17 16 15 15 17 19 20 20 20 17 17 18 14 12 12 12 14 13 13 13 13 13 13
6 7 7 4 8 5 8 7 9 10 6 7 10 9 16 18 18 18 15 14 15 14 9 6 7 5 5 7 12 15 15 14 12 12 4 6 6 7 6 8 10 12 14 14 12 12 11 11 10 10 10 8 10 11 13 14 13 13 13 13 13 14 14
4 4 2 6 4 4 3 5 8 11 4 5 14 4 18 19 17 15 13 14 13 13 11 10 5 5 3 5 12 16 17 16 14 11 9 2 7 8 9 10 10 12 14 15 16 15 11 12 12 13 13 12 13 13 13 14 13 13 13 13 14 14 13
3 3 2 3 1 2 8 5 7 10 7 11 8 5 10 14 15 16 14 16 16 15 13 10 7 3 2 9 13 16 18 18 16 13 10 7 1 7 5 8 6 5 6 9 11 11 12 13 13 13 12 13 13 12 13 12 13 13 14 14 14 14 14
1 2 5 1 3 5 3 3 7 8 8 10 9 6 3 11 17 15 13 14 16 17 16 15 13 7 6 13 10 14 18 17 16 14 13 11 9 5 10 9 10 10 9 10 10 12 12 12 12 11 12 12 12 12 12 12 13 13 13 14 14 13 14
6 2 1 1 3 2 3 10 14 15 11 10 4 5 4 10 15 16 15 15 17 15 16 16 14 5 10 6 8 12 15 15 15 12 12 13 10 10 6 9 13 12 12 14 13 12 13 13 12 13 13 13 12 12 12 12 13 13 14 14 13 13 14
6 4 2 2 1 1 7 14 14 15 13 5 5 1 3 10 15 14 15 15 17 16 16 14 11 13 9 9 9 12 13 10 11 12 13 14 13 12 11 10 6 10 11 12 12 13 14 14 13 14 14 13 13 12 12 12 13 13 14 14 14 14 13
8 8 3 2 2 3 10 13 16 16 11 4 2 3 4 7 11 12 12 14 15 15 14 13 11 10 7 8 11 11 10 16 17 16 14 13 13 13 13 11 8 9 8 9 10 9 8 10 12 13 13 13 12 11 11 11 13 14 13 12 12 12 11
2 4 3 4 3 2 12 15 10 14 2 6 5 4 3 7 11 12 11 13 15 15 14 10 9 10 11 9 8 13 15 12 12 14 14 16 16 15 13 13 10 10 10 11 11 10 6 8 10 11 12 12 10 10 10 11 10 8 8 9 10 10 11
3 2 1 2 0 4 17 16 4 15 7 5 6 7 9 11 12 13 13 11 14 14 13 12 9 11 12 13 15 13 15 15 14 14 17 16 14 13 13 13 11 8 9 10 10 9 7 7 8 10 13 12 10 10 9 8 6 7 7 7 8 9 9
2 4 3 3 4 7 11 11 5 6 6 4 6 8 8 10 9 12 12 13 13 14 14 13 13 12 14 18 19 16 16 15 15 14 15 16 15 14 12 10 9 9 9 9 10 9 8 8 8 9 13 12 11 11 9 5 5 6 6 6 7 8 9
3 2 3 4 2 5 7 6 4 5 6 7 10 9 7 8 10 11 11 14 16 14 16 14 13 12 15 13 13 13 12 12 13 13 14 14 14 13 11 11 10 9 9 10 9 10 8 9 9 8 9 13 12 11 4 4 6 6 7 7 7 7 7
7 1 6 4 5 9 8 5 3 6 7 9 10 10 9 9 9 9 10 14 15 14 15 14 14 12 12 14 14 15 13 12 13 14 15 15 14 14 13 12 10 8 8 10 10 10 10 9 8 7 7 9 12 7 5 4 5 6 6 7 6 7 6
4 4 4 11 13 13 8 4 3 5 5 7 8 10 8 8 9 11 11 11 14 13 13 12 14 15 12 14 16 14 14 14 12 11 12 12 12 12 13 11 9 9 9 10 10 10 10 8 7 7 8 7 6 6 6 5 5 5 5 5 4 4 5
3 6 7 12 15 11 4 2 4 7 9 11 12 10 10 9 8 9 11 11 12 12 12 11 11 14 13 12 15 15 13 11 11 10 10 12 13 13 11 11 9 8 9 9 8 8 7 6 6 6 6 6 4 4 4 4 5 6 5 4 4 3 3
7 4 5 16 10 9 11 8 8 10 11 12 16 15 15 13 11 10 10 9 10 11 12 11 12 12 15 11 11 16 15 12 10 12 10 10 10 10 13 11 10 7 7 7 6 6 5 4 5 7 6 6 5 6 5 4 3 6 5 4 4 4 2
6 9 11 15 10 7 10 11 12 14 13 12 14 16 16 14 11 9 10 11 10 11 11 9 8 10 12 13 9 13 16 13 9 8 11 11 10 10 9 8 9 8 7 5 6 5 4 4 6 6 6 6 6 5 4 3 4 7 5 5 5 4 3
8 11 12 9 8 12 11 11 12 12 12 12 14 16 16 15 13 9 9 11 10 10 10 9 7 7 10 13 8 7 13 16 13 5 5 10 10 10 10 11 11 9 7 5 5 5 4 4 5 6 6 6 6 6 5 4 5 6 6 6 5 4 3
9 10 12 11 10 11 13 14 14 13 12 12 14 15 14 15 13 11 9 9 11 11 10 7 7 7 9 11 9 7 10 17 16 13 5 6 7 8 7 7 8 9 9 7 5 4 3 4 5 5 7 7 6 6 5 4 4 5 5 6 5 3 3
11 13 12 12 11 12 12 13 12 12 13 12 12 13 13 13 13 10 10 9 9 11 10 7 8 8 7 11 10 8 5 13 14 14 9 5 7 8 9 10 11 8 8 6 5 3 3 4 5 6 7 7 6 5 4 3 4 5 5 5 5 4 4
Wind_Direction
297 261 196 196 160 204 182 164 205 211 94 149 241 293 256 95 113 246 102 279 280 306 317 256 207 175 212 212 221 222 225 220 178 185 190 195 198 198 195 198 199 197 193 190 191 192 191 190 191 194 193 190 190 187 188 190 191 188 190 191 192 192 193
304 16 324 238 189 141 131 190 201 117 136 152 178 217 190 204 218 253 145 215 214 163 251 184 179 183 216 210 223 224 224 206 178 194 192 191 195 197 197 199 198 193 191 192 192 193 192 191 193 193 192 191 189 188 188 188 188 189 192 192 192 192 192
299 336 331 284 214 170 189 204 136 166 159 204 199 189 219 216 229 280 289 213 222 199 230 188 192 197 219 223 222 225 229 205 198 198 196 194 194 194 196 200 197 192 194 195 194 196 195 194 191 190 188 186 188 190 190 189 190 191 190 191 192 193 193
319 300 223 220 208 208 208 108 180 163 149 214 174 199 166 122 257 246 271 141 237 213 203 183 199 196 203 207 216 224 221 209 202 201 195 191 190 193 197 199 196 193 195 194 195 196 192 190 189 188 185 185 189 190 188 190 191 189 188 190 190 193 194
344 286 206 217 200 196 201 188 180 189 218 246 178 325 192 196 198 209 254 269 272 248 208 180 193 199 199 191 205 215 218 213 208 202 193 190 191 193 197 197 194 194 196 196 196 194 193 188 183 180 183 188 189 187 190 189 187 187 189 191 190 193 188
310 256 289 30 24 25 331 222 201 195 186 149 176 235 151 189 201 228 205 259 263 269 199 186 200 206 195 198 195 207 212 210 208 205 199 192 192 197 197 196 195 195 196 195 193 187 179 177 181 186 188 187 186 188 189 188 188 189 188 188 188 187 188
266 273 279 278 284 271 241 260 241 200 172 138 176 213 245 136 222 132 172 330 256 233 194 204 199 196 205 204 200 206 211 210 205 206 203 195 194 197 199 198 197 197 194 191 184 178 178 183 187 187 185 186 188 188 186 188 189 190 188 187 186 186 188
260 264 258 270 265 203 265 226 276 276 224 211 220 208 176 186 254 204 251 261 267 246 204 203 209 206 204 212 196 203 221 222 211 213 207 198 198 204 203 200 199 198 193 183 174 178 181 184 183 184 187 187 186 186 187 187 191 190 188 186 185 185 188
329 300 315 110 35 42 43 326 308 307 318 296 241 92 109 207 194 183 171 240 254 273 347 254 260 240 217 185 236 235 221 216 203 206 214 209 204 201 198 196 197 192 178 170 180 181 181 183 184 184 183 185 186 187 187 188 191 189 188 184 183 186 189
198 213 212 176 335 337 311 286 315 332 15 350 340 228 182 221 232 168 198 236 239 161 51 105 36 296 273 280 241 242 239 247 221 208 219 215 207 206 200 197 188 181 179 181 180 180 182 183 182 182 184 185 185 186 188 188 189 186 187 184 185 185 188
219 223 282 224 213 312 313 311 314 296 311 299 254 283 196 222 193 197 230 221 258 228 221 185 212 218 209 257 291 258 244 242 237 217 212 210 209 208 201 191 186 181 177 181 181 180 181 182 181 182 183 183 184 185 186 187 186 185 183 182 183 186 188
252 275 278 282 287 281 277 285 288 293 292 294 298 235 238 133 125 239 228 254 249 260 244 220 214 231 242 248 243 257 254 247 234 219 209 218 213 209 200 187 179 180 183 182 181 181 180 181 181 181 183 183 183 182 185 184 181 181 182 183 184 187 188
256 258 265 271 270 253 263 267 274 284 290 287 258 247 245 216 214 231 224 204 220 257 290 26 326 222 238 240 241 245 249 246 243 238 223 210 209 202 190 186 182 184 182 182 182 180 180 177 177 178 179 180 179 181 180 180 181 183 179 181 184 186 187
278 271 260 257 242 238 244 245 255 267 277 278 254 253 256 244 257 264 208 206 230 294 355 318 322 291 257 257 266 287 282 256 241 235 230 212 204 195 187 184 185 184 185 182 180 179 175 175 177 176 177 178 179 179 180 180 181 181 174 182 183 186 190
281 271 254 226 219 224 254 261 291 310 318 280 240 228 261 297 273 262 250 236 255 310 329 326 315 337 349 18 5 343 312 277 245 229 218 202 193 188 189 185 185 187 184 179 174 173 175 177 178 177 178 180 179 178 177 178 181 179 177 179 184 186 192
295 261 203 229 259 235 217 278 355 353 350 12 11 65 7 306 273 323 307 269 286 313 335 308 355 15 30 17 355 351 338 322 282 231 208 192 186 184 187 187 185 182 174 170 172 176 179 179 178 178 175 174 174 179 178 180 179 173 177 180 184 188 192
256 258 262 315 297 157 194 5 358 341 340 14 35 37 28 10 261 73 4 259 301 301 309 351 12 23 28 22 5 347 345 336 310 250 216 194 188 186 186 183 181 176 175 175 177 178 177 177 178 180 175 172 181 180 178 176 167 174 180 180 182 186 188
263 293 306 291 161 191 202 146 55 31 335 2 27 37 17 12 28 1 279 278 310 317 322 354 24 31 28 18 360 359 352 342 330 283 214 212 199 199 187 181 178 178 176 178 178 178 178 180 181 174 173 180 178 168 162 159 171 173 174 179 180 185 187
274 300 313 156 184 189 139 134 50 17 341 25 335 53 32 20 14 7 355 345 339 327 312 296 287 306 26 24 19 8 360 352 343 323 257 183 172 173 184 184 178 174 175 171 167 167 172 166 154 155 161 145 140 155 162 168 171 170 174 177 179 185 190
311 320 294 186 184 98 76 90 30 3 29 24 337 60 27 20 14 4 355 336 328 318 329 320 297 256 276 20 25 10 357 354 345 343 332 265 161 166 173 175 173 166 166 167 169 169 155 152 159 163 163 156 158 166 168 168 168 170 173 178 186 187 190
204 253 275 224 23 127 8 41 5 4 331 324 335 356 44 16 8 1 343 339 341 337 336 334 311 290 249 35 20 360 354 349 342 351 352 348 112 135 132 143 141 133 131 138 141 140 150 157 156 160 157 158 160 160 166 170 168 171 176 184 188 188 190
183 277 305 339 120 167 221 164 291 310 286 289 284 252 12 20 5 357 344 342 336 346 345 344 335 289 33 30 356 349 346 345 346 349 8 17 27 66 118 115 121 127 125 122 134 142 147 154 156 151 153 154 156 162 167 165 169 174 180 190 189 188 191
351 329 207 236 153 133 79 324 310 305 307 298 260 212 55 15 358 352 346 347 348 353 353 342 337 42 62 15 348 337 337 343 352 358 12 21 30 39 44 124 133 137 143 145 146 145 147 150 154 149 151 150 155 163 167 169 173 176 186 191 189 191 195
237 262 305 284 244 276 325 323 316 310 310 310 175 162 48 5 349 348 349 355 354 347 357 344 19 31 46 5 325 326 322 336 1 10 12 19 26 35 45 40 69 117 127 126 136 149 157 160 155 153 153 157 163 165 169 166 174 183 189 192 192 196 195
237 227 250 19 357 28 343 333 318 316 294 206 87 77 10 344 341 344 351 354 354 348 3 9 21 357 335 312 298 294 348 15 6 10 16 27 30 38 42 46 45 69 78 103 118 124 136 145 154 154 155 158 164 163 162 167 181 187 190 190 191 197 195
240 207 169 197 129 71 337 337 325 326 282 83 66 99 30 342 354 342 357 353 354 353 358 6 7 332 318 299 328 10 17 8 5 8 13 19 26 31 40 43 46 68 75 83 86 82 82 126 144 150 149 151 150 152 160 176 181 170 171 183 187 194 195
334 355 86 72 76 7 5 335 352 10 46 51 337 345 23 9 352 345 342 2 350 353 348 350 347 333 340 359 6 6 13 11 7 8 17 16 17 18 20 27 25 42 69 65 66 73 63 81 118 132 129 128 131 133 134 145 146 147 153 159 170 182 191
310 31 55 59 28 335 350 8 52 39 48 7 1 14 356 359 357 350 337 344 350 346 345 337 339 342 348 8 7 4 6 1 4 5 13 14 13 15 16 20 19 21 56 60 62 52 50 65 82 106 119 118 120 116 125 158 143 140 144 152 153 172 189
16 17 71 62 74 356 355 359 53 72 59 23 13 17 10 355 351 341 341 335 339 344 341 338 341 344 359 360 359 6 353 350 358 5 14 15 13 13 11 13 13 22 37 52 56 53 48 62 71 81 100 112 107 106 144 155 150 142 149 147 147 160 175
310 14 96 109 19 347 331 320 41 35 20 7 6 3 355 355 341 338 336 328 330 337 342 342 342 349 346 349 359 7 358 353 355 3 7 6 7 9 13 14 14 20 37 49 53 57 47 46 66 74 81 95 103 124 148 133 134 132 138 143 144 153 168
330 124 67 25 343 317 300 270 114 69 29 7 355 344 346 333 333 329 326 328 322 328 335 341 340 338 349 353 355 1 3 357 350 349 354 2 5 7 6 2 12 23 39 49 46 44 48 24 43 58 75 78 104 132 124 135 130 130 121 117 121 132 156
10 326 2 8 328 310 309 116 60 18 354 345 340 328 321 314 315 312 312 321 316 325 326 331 338 334 339 2 354 352 355 346 344 344 346 359 0 359 3 3 14 27 37 45 49 49 46 21 35 48 50 49 44 61 70 80 107 114 108 116 120 132 155
313 274 11 355 345 60 63 37 4 347 340 336 324 321 315 312 307 304 304 307 309 311 311 321 333 336 333 352 359 351 341 340 344 341 327 347 360 1 5 358 8 22 29 43 47 58 44 26 51 56 47 36 26 39 35 40 86 98 97 91 81 52 32
11 4 341 346 346 324 326 329 321 311 310 310 305 304 301 299 299 300 302 299 300 300 299 309 321 331 328 334 15 350 325 323 325 333 335 348 355 1 358 355 6 12 22 34 41 42 26 41 67 63 53 35 27 17 21 42 81 89 92 82 65 41 35
320 324 324 322 302 290 288 298 298 289 289 292 293 292 289 289 288 287 287 292 295 295 298 306 317 327 324 317 344 344 320 317 319 325 338 352 350 355 1 4 0 357 2 8 38 34 8 25 57 67 63 46 34 22 16 23 62 96 104 90 79 57 50
291 299 318 315 310 303 301 295 288 286 280 277 276 275 275 274 278 282 277 272 277 280 284 290 309 320 315 308 320 327 320 310 316 321 353 359 347 346 358 11 5 355 350 349 1 1 339 37 48 53 57 40 31 20 19 23 46 70 77 94 90 86 75
318 318 305 307 305 296 287 283 282 280 279 270 266 268 271 276 274 271 272 271 260 263 268 279 305 302 297 296 307 307 312 303 307 314 333 357 5 359 355 355 355 350 332 323 304 318 3 34 48 46 51 31 19 15 16 35 75 81 82 92 102 100 91